Location: Killam
(52.7910°N, 111.8608°W)
Time: 12:28:26
(UTC+00:00)

CUBEBUG 2 - Pass Details

Date: 12 March 2026
Orbit: 548 x 627 km, 97.9° (Epoch: 14 April)

Event Time Altitude Azimuth Distance (km) Brightness Sun altitude
Rises 09:35:28 0° 18° (NNE) 2,877 ? -34.8°
Reaches altitude 10° 09:37:42 10° 23° (NNE) 1,979 ? -34.6°
Enters shadow 09:39:18 22° 32° (NNE) 1,372 ? -34.4°
